Time,TemperatureF,DewpointF,PressureIn,WindDirection,WindDirectionDegrees,WindSpeedMPH,WindSpeedGustMPH,Humidity,HourlyPrecipIn,Conditions,Clouds,dailyrainin,SoftwareType,DateUTC
2013-05-01 00:00:00,52.3,42.4,29.86,NNW,340,9.0,9.0,69,0.00,,,0.03,Wunderground v.1.15,2013-05-01 05:00:00,
2013-05-01 00:04:00,52.2,42.3,29.86,NNW,335,9.0,15.0,69,0.00,,,0.00,Wunderground v.1.15,2013-05-01 05:04:00,
2013-05-01 00:06:00,52.1,42.6,29.85,North,352,9.0,15.0,70,0.00,,,0.00,Wunderground v.1.15,2013-05-01 05:06:00,
2013-05-01 00:10:00,51.8,43.1,29.85,North,4,9.0,9.0,72,0.00,,,0.00,Wunderground v.1.15,2013-05-01 05:10:00,
2013-05-01 00:12:00,51.7,43.3,29.86,North,350,9.0,9.0,73,0.00,,,0.00,Wunderground v.1.15,2013-05-01 05:12:00,
2013-05-01 00:15:00,51.4,42.7,29.88,NW,323,8.0,9.0,72,0.00,,,0.01,Wunderground v.1.15,2013-05-01 05:15:00,
2013-05-01 00:22:00,50.4,43.5,29.86,North,359,7.0,10.0,77,0.09,,,0.02,Wunderground v.1.15,2013-05-01 05:22:00,
2013-05-01 00:24:00,50.2,43.3,29.85,NNE,15,7.0,12.0,77,0.09,,,0.02,Wunderground v.1.15,2013-05-01 05:24:00,
2013-05-01 00:26:00,50.1,43.5,29.85,NNE,26,8.0,12.0,78,0.10,,,0.03,Wunderground v.1.15,2013-05-01 05:26:00,
2013-05-01 00:28:00,50.0,43.7,29.85,NNE,22,9.0,12.0,79,0.10,,,0.03,Wunderground v.1.15,2013-05-01 05:28:00,
2013-05-01 00:32:00,49.4,43.8,29.87,North,352,11.0,11.0,81,0.11,,,0.04,Wunderground v.1.15,2013-05-01 05:32:00,
2013-05-01 00:33:00,49.1,43.8,29.88,NNW,328,10.0,11.0,82,0.11,,,0.04,Wunderground v.1.15,2013-05-01 05:33:00,
2013-05-01 00:35:00,48.8,43.5,29.89,North,352,10.0,11.0,82,0.10,,,0.04,Wunderground v.1.15,2013-05-01 05:35:00,
2013-05-01 00:40:00,48.5,43.3,29.89,NNW,335,9.0,10.0,82,0.06,,,0.04,Wunderground v.1.15,2013-05-01 05:40:00,
2013-05-01 00:42:00,48.5,42.6,29.88,NE,34,10.0,15.0,80,0.05,,,0.05,Wunderground v.1.15,2013-05-01 05:42:00,
2013-05-01 00:44:00,48.6,42.7,29.88,NNW,336,10.0,15.0,80,0.05,,,0.05,Wunderground v.1.15,2013-05-01 05:44:00,
2013-05-01 00:46:00,48.7,43.1,29.88,NNE,13,11.0,15.0,81,0.05,,,0.05,Wunderground v.1.15,2013-05-01 05:46:00,
2013-05-01 00:52:00,48.4,43.8,29.89,NNW,347,12.0,15.0,84,0.10,,,0.06,Wunderground v.1.15,2013-05-01 05:52:00,
2013-05-01 00:54:00,48.1,43.8,29.89,NNE,13,12.0,15.0,85,0.10,,,0.07,Wunderground v.1.15,2013-05-01 05:54:00,
2013-05-01 00:55:00,47.9,43.9,29.89,NNE,18,13.0,15.0,86,0.10,,,0.07,Wunderground v.1.15,2013-05-01 05:55:00,
2013-05-01 00:57:00,47.7,43.7,29.90,NNW,338,12.0,15.0,86,0.10,,,0.07,Wunderground v.1.15,2013-05-01 05:57:00,
2013-05-01 01:04:00,47.6,43.3,29.95,NW,323,12.0,15.0,85,0.05,,,0.07,Wunderground v.1.15,2013-05-01 06:04:00,
2013-05-01 01:06:00,47.6,43.3,29.95,NNW,332,12.0,15.0,85,0.05,,,0.07,Wunderground v.1.15,2013-05-01 06:06:00,
2013-05-01 01:10:00,47.5,43.2,29.94,NW,325,11.0,11.0,85,0.04,,,0.08,Wunderground v.1.15,2013-05-01 06:10:00,
2013-05-01 01:12:00,47.3,43.3,29.93,North,352,11.0,15.0,86,0.04,,,0.08,Wunderground v.1.15,2013-05-01 06:12:00,
2013-05-01 01:16:00,47.1,43.4,29.92,NNW,342,10.0,15.0,87,0.11,,,0.09,Wunderground v.1.15,2013-05-01 06:16:00,
2013-05-01 01:17:00,46.9,43.2,29.92,North,352,10.0,15.0,87,0.14,,,0.10,Wunderground v.1.15,2013-05-01 06:17:00,
2013-05-01 01:24:00,46.7,43.6,29.94,North,358,10.0,15.0,89,0.13,,,0.11,Wunderground v.1.15,2013-05-01 06:24:00,
2013-05-01 01:28:00,46.5,43.7,29.92,NNE,23,9.0,15.0,90,0.07,,,0.11,Wunderground v.1.15,2013-05-01 06:28:00,
2013-05-01 01:30:00,46.5,44.0,29.92,NNE,24,9.0,9.0,91,0.06,,,0.11,Wunderground v.1.15,2013-05-01 06:30:00,
2013-05-01 01:34:00,46.5,44.0,29.91,NNE,16,10.0,13.0,91,0.43,,,0.13,Wunderground v.1.15,2013-05-01 06:34:00,
2013-05-01 01:36:00,46.4,44.2,29.91,NNE,18,10.0,14.0,92,0.26,,,0.14,Wunderground v.1.15,2013-05-01 06:36:00,
2013-05-01 01:37:00,46.4,44.2,29.91,NNW,347,10.0,15.0,92,0.21,,,0.14,Wunderground v.1.15,2013-05-01 06:37:00,
2013-05-01 01:39:00,46.4,44.2,29.92,NNE,33,11.0,15.0,92,0.13,,,0.14,Wunderground v.1.15,2013-05-01 06:39:00,
2013-05-01 01:41:00,46.3,43.8,29.93,North,6,12.0,15.0,91,0.09,,,0.14,Wunderground v.1.15,2013-05-01 06:41:00,
2013-05-01 01:44:00,46.2,43.7,29.93,NNW,335,12.0,15.0,91,0.07,,,0.14,Wunderground v.1.15,2013-05-01 06:44:00,
2013-05-01 01:46:00,46.1,43.9,29.94,North,357,12.0,15.0,92,0.05,,,0.14,Wunderground v.1.15,2013-05-01 06:46:00,
2013-05-01 01:48:00,46.0,43.8,29.94,NNW,348,12.0,15.0,92,0.05,,,0.14,Wunderground v.1.15,2013-05-01 06:48:00,
2013-05-01 01:52:00,45.9,43.7,29.94,North,8,11.0,15.0,92,0.04,,,0.15,Wunderground v.1.15,2013-05-01 06:52:00,
2013-05-01 01:56:00,45.7,43.5,29.94,NNW,345,11.0,15.0,92,0.14,,,0.16,Wunderground v.1.15,2013-05-01 06:56:00,
2013-05-01 01:58:00,45.5,43.3,29.95,NNW,340,12.0,15.0,92,0.14,,,0.16,Wunderground v.1.15,2013-05-01 06:58:00,
2013-05-01 02:04:00,45.0,42.5,29.96,NNE,15,11.0,15.0,91,0.19,,,0.18,Wunderground v.1.15,2013-05-01 07:04:00,
2013-05-01 02:08:00,44.8,42.6,29.96,North,352,11.0,15.0,92,0.13,,,0.19,Wunderground v.1.15,2013-05-01 07:08:00,
2013-05-01 02:10:00,44.8,42.9,29.97,NNW,347,11.0,11.0,93,0.13,,,0.19,Wunderground v.1.15,2013-05-01 07:10:00,
2013-05-01 02:12:00,44.8,42.9,29.97,NNW,327,11.0,15.0,93,0.11,,,0.19,Wunderground v.1.15,2013-05-01 07:12:00,
2013-05-01 02:16:00,44.5,42.6,29.98,NNW,335,10.0,15.0,93,0.08,,,0.20,Wunderground v.1.15,2013-05-01 07:16:00,
2013-05-01 02:18:00,44.4,42.5,29.97,North,359,10.0,15.0,93,0.08,,,0.20,Wunderground v.1.15,2013-05-01 07:18:00,
2013-05-01 02:21:00,44.3,42.4,29.96,NNW,335,11.0,17.0,93,0.07,,,0.20,Wunderground v.1.15,2013-05-01 07:21:00,
2013-05-01 02:23:00,44.3,42.7,29.96,North,355,13.0,17.0,94,0.06,,,0.21,Wunderground v.1.15,2013-05-01 07:23:00,
2013-05-01 02:26:00,44.2,42.3,29.96,NNE,12,14.0,17.0,93,0.06,,,0.21,Wunderground v.1.15,2013-05-01 07:26:00,
2013-05-01 02:28:00,44.1,42.5,29.97,North,11,15.0,17.0,94,0.06,,,0.21,Wunderground v.1.15,2013-05-01 07:28:00,
2013-05-01 02:30:00,43.9,42.3,29.97,NNW,333,15.0,15.0,94,0.12,,,0.22,Wunderground v.1.15,2013-05-01 07:30:00,
2013-05-01 02:34:00,43.7,42.1,29.96,North,4,15.0,18.0,94,0.10,,,0.22,Wunderground v.1.15,2013-05-01 07:34:00,
2013-05-01 02:36:00,43.6,42.3,29.96,NNE,22,14.0,18.0,95,0.08,,,0.22,Wunderground v.1.15,2013-05-01 07:36:00,
2013-05-01 02:41:00,43.6,42.3,29.95,North,9,15.0,15.0,95,0.04,,,0.22,Wunderground v.1.15,2013-05-01 07:41:00,
2013-05-01 02:43:00,43.5,42.2,29.95,North,9,14.0,16.0,95,0.04,,,0.22,Wunderground v.1.15,2013-05-01 07:43:00,
2013-05-01 02:48:00,43.6,42.5,29.95,North,11,15.0,17.0,96,0.00,,,0.22,Wunderground v.1.15,2013-05-01 07:48:00,
2013-05-01 02:50:00,43.6,42.5,29.95,NNE,24,14.0,14.0,96,0.00,,,0.22,Wunderground v.1.15,2013-05-01 07:50:00,
2013-05-01 02:54:00,43.7,42.6,29.94,North,9,14.0,15.0,96,0.00,,,0.22,Wunderground v.1.15,2013-05-01 07:54:00,
2013-05-01 02:58:00,43.7,42.9,29.95,NNE,18,14.0,19.0,97,0.00,,,0.22,Wunderground v.1.15,2013-05-01 07:58:00,
2013-05-01 03:02:00,43.7,42.6,29.96,North,1,14.0,15.0,96,0.00,,,0.22,Wunderground v.1.15,2013-05-01 08:02:00,
2013-05-01 03:03:00,43.7,42.6,29.97,NNE,15,13.0,15.0,96,0.00,,,0.22,Wunderground v.1.15,2013-05-01 08:03:00,
2013-05-01 03:05:00,43.7,42.6,29.97,NNE,14,13.0,15.0,96,0.00,,,0.22,Wunderground v.1.15,2013-05-01 08:05:00,
2013-05-01 03:08:00,43.7,42.6,29.97,North,9,13.0,15.0,96,0.00,,,0.22,Wunderground v.1.15,2013-05-01 08:08:00,
2013-05-01 03:10:00,43.7,42.6,29.97,NE,37,12.0,15.0,96,0.00,,,0.22,Wunderground v.1.15,2013-05-01 08:10:00,
2013-05-01 03:14:00,43.8,42.7,29.96,NNE,26,12.0,15.0,96,0.00,,,0.22,Wunderground v.1.15,2013-05-01 08:14:00,
2013-05-01 03:18:00,43.9,42.8,29.98,NNE,32,13.0,16.0,96,0.00,,,0.22,Wunderground v.1.15,2013-05-01 08:18:00,
2013-05-01 03:20:00,44.0,42.7,29.98,North,10,13.0,15.0,95,0.00,,,0.22,Wunderground v.1.15,2013-05-01 08:20:00,
2013-05-01 03:25:00,44.0,42.4,30.00,NNE,25,13.0,16.0,94,0.00,,,0.23,Wunderground v.1.15,2013-05-01 08:25:00,
2013-05-01 03:27:00,43.9,42.0,30.00,North,8,13.0,16.0,93,0.00,,,0.23,Wunderground v.1.15,2013-05-01 08:27:00,
2013-05-01 03:32:00,43.7,41.8,29.99,NNE,23,14.0,15.0,93,0.00,,,0.23,Wunderground v.1.15,2013-05-01 08:32:00,
2013-05-01 03:34:00,43.6,42.0,29.98,NE,40,14.0,17.0,94,0.00,,,0.23,Wunderground v.1.15,2013-05-01 08:34:00,
2013-05-01 03:36:00,43.6,42.0,29.98,NNE,23,14.0,17.0,94,0.00,,,0.23,Wunderground v.1.15,2013-05-01 08:36:00,
2013-05-01 03:38:00,43.5,41.9,29.98,NNE,21,14.0,17.0,94,0.00,,,0.23,Wunderground v.1.15,2013-05-01 08:38:00,
2013-05-01 03:42:00,43.5,41.9,29.98,NNE,32,14.0,16.0,94,0.04,,,0.24,Wunderground v.1.15,2013-05-01 08:42:00,
2013-05-01 03:44:00,43.4,41.8,29.97,NNE,20,14.0,16.0,94,0.04,,,0.24,Wunderground v.1.15,2013-05-01 08:44:00,
2013-05-01 03:45:00,43.4,41.8,29.97,NNE,25,13.0,16.0,94,0.04,,,0.24,Wunderground v.1.15,2013-05-01 08:45:00,
2013-05-01 03:49:00,43.3,42.0,29.98,NE,46,13.0,13.0,95,0.04,,,0.24,Wunderground v.1.15,2013-05-01 08:49:00,
2013-05-01 03:52:00,43.2,41.9,29.99,NE,55,12.0,15.0,95,0.04,,,0.24,Wunderground v.1.15,2013-05-01 08:52:00,
2013-05-01 03:54:00,43.2,41.9,29.99,NNE,26,12.0,15.0,95,0.05,,,0.25,Wunderground v.1.15,2013-05-01 08:54:00,
2013-05-01 03:56:00,43.1,41.8,29.98,NE,40,11.0,15.0,95,0.28,,,0.26,Wunderground v.1.15,2013-05-01 08:56:00,
2013-05-01 03:58:00,43.1,41.8,29.97,NNE,32,12.0,15.0,95,0.20,,,0.26,Wunderground v.1.15,2013-05-01 08:58:00,
2013-05-01 04:00:00,43.0,41.7,29.97,NE,36,12.0,15.0,95,0.17,,,0.27,Wunderground v.1.15,2013-05-01 09:00:00,
2013-05-01 04:04:00,42.7,41.4,29.98,NE,34,13.0,15.0,95,0.11,,,0.28,Wunderground v.1.15,2013-05-01 09:04:00,
2013-05-01 04:08:00,42.5,41.4,29.97,NNE,28,14.0,16.0,96,0.11,,,0.28,Wunderground v.1.15,2013-05-01 09:08:00,
2013-05-01 04:10:00,42.4,41.3,29.97,NNE,23,14.0,16.0,96,0.12,,,0.29,Wunderground v.1.15,2013-05-01 09:10:00,
2013-05-01 04:13:00,42.2,41.4,29.99,NNE,20,14.0,16.0,97,0.11,,,0.29,Wunderground v.1.15,2013-05-01 09:13:00,
2013-05-01 04:16:00,42.1,41.3,30.01,NNE,28,14.0,16.0,97,0.09,,,0.30,Wunderground v.1.15,2013-05-01 09:16:00,
2013-05-01 04:18:00,42.0,41.2,30.02,North,4,14.0,16.0,97,0.09,,,0.30,Wunderground v.1.15,2013-05-01 09:18:00,
2013-05-01 04:20:00,41.9,41.1,30.03,NNE,32,13.0,15.0,97,0.09,,,0.30,Wunderground v.1.15,2013-05-01 09:20:00,
2013-05-01 04:22:00,41.7,40.9,30.03,North,6,13.0,15.0,97,0.08,,,0.30,Wunderground v.1.15,2013-05-01 09:22:00,
2013-05-01 04:26:00,41.5,41.0,30.02,NNE,22,13.0,15.0,98,0.05,,,0.30,Wunderground v.1.15,2013-05-01 09:26:00,
2013-05-01 04:28:00,41.5,41.0,30.01,NNE,21,13.0,15.0,98,0.05,,,0.31,Wunderground v.1.15,2013-05-01 09:28:00,
2013-05-01 04:30:00,41.4,40.9,30.00,North,9,13.0,15.0,98,0.34,,,0.32,Wunderground v.1.15,2013-05-01 09:30:00,
2013-05-01 04:32:00,41.3,40.8,30.00,NNE,32,13.0,15.0,98,0.34,,,0.33,Wunderground v.1.15,2013-05-01 09:32:00,
2013-05-01 04:33:00,41.3,40.8,30.00,NNE,26,14.0,15.0,98,0.22,,,0.34,Wunderground v.1.15,2013-05-01 09:33:00,
2013-05-01 04:35:00,41.3,40.8,29.99,NE,39,14.0,15.0,98,0.22,,,0.34,Wunderground v.1.15,2013-05-01 09:35:00,
2013-05-01 04:38:00,41.2,40.7,29.99,NNE,18,14.0,15.0,98,0.13,,,0.35,Wunderground v.1.15,2013-05-01 09:38:00,
2013-05-01 04:40:00,41.2,40.7,29.99,NNE,13,14.0,15.0,98,0.13,,,0.35,Wunderground v.1.15,2013-05-01 09:40:00,
2013-05-01 04:42:00,41.2,40.7,29.99,NNE,12,15.0,17.0,98,0.13,,,0.35,Wunderground v.1.15,2013-05-01 09:42:00,
2013-05-01 04:44:00,41.2,40.7,29.99,NNE,23,14.0,17.0,98,0.10,,,0.35,Wunderground v.1.15,2013-05-01 09:44:00,
2013-05-01 04:48:00,41.2,40.7,30.00,NNE,15,14.0,17.0,98,0.06,,,0.35,Wunderground v.1.15,2013-05-01 09:48:00,
2013-05-01 04:50:00,41.2,40.7,30.00,NNE,31,15.0,15.0,98,0.05,,,0.35,Wunderground v.1.15,2013-05-01 09:50:00,
2013-05-01 04:54:00,41.3,40.8,30.01,NNE,23,13.0,15.0,98,0.04,,,0.35,Wunderground v.1.15,2013-05-01 09:54:00,
2013-05-01 04:55:00,41.3,40.8,30.01,NE,36,13.0,15.0,98,0.00,,,0.35,Wunderground v.1.15,2013-05-01 09:55:00,
2013-05-01 04:57:00,41.1,40.6,30.02,NNE,29,13.0,19.0,98,0.00,,,0.36,Wunderground v.1.15,2013-05-01 09:57:00,
2013-05-01 05:00:00,40.7,40.2,30.02,North,354,13.0,17.0,98,0.00,,,0.36,Wunderground v.1.15,2013-05-01 10:00:00,
2013-05-01 05:04:00,40.4,39.9,30.04,NNE,25,14.0,17.0,98,0.16,,,0.37,Wunderground v.1.15,2013-05-01 10:04:00,
2013-05-01 05:08:00,40.2,39.7,30.05,NNW,340,14.0,17.0,98,0.11,,,0.38,Wunderground v.1.15,2013-05-01 10:08:00,
2013-05-01 05:12:00,39.9,39.4,30.04,NNE,26,13.0,16.0,98,0.11,,,0.38,Wunderground v.1.15,2013-05-01 10:12:00,
2013-05-01 05:14:00,39.9,39.4,30.04,NNE,26,14.0,16.0,98,0.09,,,0.39,Wunderground v.1.15,2013-05-01 10:14:00,
2013-05-01 05:15:00,39.8,39.3,30.04,North,10,15.0,16.0,98,0.09,,,0.39,Wunderground v.1.15,2013-05-01 10:15:00,
2013-05-01 05:17:00,39.8,39.3,30.05,North,352,15.0,16.0,98,0.09,,,0.39,Wunderground v.1.15,2013-05-01 10:17:00,
2013-05-01 05:20:00,39.8,39.3,30.04,NNE,16,15.0,17.0,98,0.08,,,0.39,Wunderground v.1.15,2013-05-01 10:20:00,
2013-05-01 05:22:00,39.7,39.2,30.04,NE,37,15.0,17.0,98,0.07,,,0.39,Wunderground v.1.15,2013-05-01 10:22:00,
2013-05-01 05:24:00,39.6,39.1,30.04,NNE,25,15.0,17.0,98,0.05,,,0.39,Wunderground v.1.15,2013-05-01 10:24:00,
2013-05-01 05:28:00,39.5,39.0,30.04,NNE,13,16.0,17.0,98,0.04,,,0.39,Wunderground v.1.15,2013-05-01 10:28:00,
2013-05-01 05:32:00,39.5,39.2,30.04,North,3,16.0,20.0,99,0.00,,,0.39,Wunderground v.1.15,2013-05-01 10:32:00,
2013-05-01 05:34:00,39.5,39.2,30.04,NNE,31,16.0,20.0,99,0.00,,,0.39,Wunderground v.1.15,2013-05-01 10:34:00,
2013-05-01 05:39:00,39.4,39.1,30.04,NE,36,15.0,15.0,99,0.00,,,0.39,Wunderground v.1.15,2013-05-01 10:39:00,
2013-05-01 05:42:00,39.3,39.0,30.05,NNE,28,15.0,19.0,99,0.00,,,0.39,Wunderground v.1.15,2013-05-01 10:42:00,
2013-05-01 05:44:00,39.3,39.0,30.05,North,6,15.0,19.0,99,0.00,,,0.39,Wunderground v.1.15,2013-05-01 10:44:00,
2013-05-01 05:46:00,39.3,39.0,30.05,NNE,18,15.0,19.0,99,0.00,,,0.39,Wunderground v.1.15,2013-05-01 10:46:00,
2013-05-01 05:50:00,39.1,38.8,30.05,NNE,12,16.0,17.0,99,0.00,,,0.39,Wunderground v.1.15,2013-05-01 10:50:00,
2013-05-01 05:52:00,39.0,38.7,30.06,North,5,17.0,18.0,99,0.00,,,0.39,Wunderground v.1.15,2013-05-01 10:52:00,
2013-05-01 05:56:00,38.6,38.3,30.05,NNE,23,18.0,23.0,99,0.00,,,0.39,Wunderground v.1.15,2013-05-01 10:56:00,
2013-05-01 05:58:00,38.4,37.9,30.06,NNE,13,18.0,23.0,98,0.00,,,0.39,Wunderground v.1.15,2013-05-01 10:58:00,
2013-05-01 05:59:00,38.3,37.8,30.06,North,9,18.0,25.0,98,0.00,,,0.39,Wunderground v.1.15,2013-05-01 10:59:00,
2013-05-01 06:01:00,37.9,37.4,30.06,NNW,344,18.0,25.0,98,0.00,,,0.39,Wunderground v.1.15,2013-05-01 11:01:00,
2013-05-01 06:06:00,37.6,37.1,30.06,North,1,18.0,25.0,98,0.00,,,0.39,Wunderground v.1.15,2013-05-01 11:06:00,
2013-05-01 06:08:00,37.3,36.8,30.08,NNE,18,18.0,25.0,98,0.00,,,0.39,Wunderground v.1.15,2013-05-01 11:08:00,
2013-05-01 06:10:00,36.9,36.4,30.08,North,4,19.0,19.0,98,0.00,,,0.39,Wunderground v.1.15,2013-05-01 11:10:00,
2013-05-01 06:12:00,36.8,36.3,30.09,North,355,18.0,19.0,98,0.00,,,0.39,Wunderground v.1.15,2013-05-01 11:12:00,
2013-05-01 06:16:00,36.5,36.0,30.08,NNW,345,18.0,19.0,98,0.00,,,0.39,Wunderground v.1.15,2013-05-01 11:16:00,
2013-05-01 06:18:00,36.4,35.9,30.09,NNE,16,18.0,19.0,98,0.00,,,0.39,Wunderground v.1.15,2013-05-01 11:18:00,
2013-05-01 06:21:00,36.3,35.8,30.09,NNE,21,17.0,18.0,98,0.00,,,0.40,Wunderground v.1.15,2013-05-01 11:21:00,
2013-05-01 06:24:00,36.3,35.8,30.09,NNW,338,17.0,18.0,98,0.00,,,0.40,Wunderground v.1.15,2013-05-01 11:24:00,
2013-05-01 06:26:00,36.3,35.8,30.09,North,11,16.0,18.0,98,0.00,,,0.40,Wunderground v.1.15,2013-05-01 11:26:00,
2013-05-01 06:28:00,36.1,35.6,30.09,NNE,28,16.0,20.0,98,0.00,,,0.40,Wunderground v.1.15,2013-05-01 11:28:00,
2013-05-01 06:30:00,36.0,35.5,30.09,NNE,16,16.0,16.0,98,0.07,,,0.41,Wunderground v.1.15,2013-05-01 11:30:00,
2013-05-01 06:36:00,36.0,35.7,30.08,NNE,16,17.0,20.0,99,0.07,,,0.41,Wunderground v.1.15,2013-05-01 11:36:00,
2013-05-01 06:38:00,35.9,35.6,30.08,North,3,17.0,20.0,99,0.07,,,0.41,Wunderground v.1.15,2013-05-01 11:38:00,
2013-05-01 06:40:00,35.9,35.6,30.08,NNE,23,17.0,17.0,99,0.05,,,0.41,Wunderground v.1.15,2013-05-01 11:40:00,
2013-05-01 06:43:00,36.0,35.7,30.09,North,10,16.0,17.0,99,0.04,,,0.41,Wunderground v.1.15,2013-05-01 11:43:00,
2013-05-01 06:46:00,35.9,35.6,30.10,NNE,23,16.0,18.0,99,0.00,,,0.41,Wunderground v.1.15,2013-05-01 11:46:00,
2013-05-01 06:48:00,35.8,35.5,30.10,North,9,16.0,18.0,99,0.00,,,0.41,Wunderground v.1.15,2013-05-01 11:48:00,
2013-05-01 06:50:00,35.7,35.4,30.10,NNE,18,15.0,15.0,99,0.00,,,0.41,Wunderground v.1.15,2013-05-01 11:50:00,
2013-05-01 06:52:00,35.7,35.4,30.11,North,10,15.0,15.0,99,0.00,,,0.41,Wunderground v.1.15,2013-05-01 11:52:00,
2013-05-01 06:54:00,35.8,35.5,30.11,NNE,25,15.0,15.0,99,0.00,,,0.41,Wunderground v.1.15,2013-05-01 11:54:00,
2013-05-01 07:00:00,35.6,35.3,30.10,NNE,20,15.0,18.0,99,0.00,,,0.41,Wunderground v.1.15,2013-05-01 12:00:00,
2013-05-01 07:02:00,35.6,35.3,30.11,North,8,16.0,18.0,99,0.00,,,0.42,Wunderground v.1.15,2013-05-01 12:02:00,
2013-05-01 07:08:00,35.4,35.1,30.12,North,11,17.0,18.0,99,0.00,,,0.42,Wunderground v.1.15,2013-05-01 12:08:00,
2013-05-01 07:12:00,35.4,35.1,30.12,NNE,25,16.0,17.0,99,0.06,,,0.43,Wunderground v.1.15,2013-05-01 12:12:00,
2013-05-01 07:14:00,35.2,34.9,30.13,North,11,16.0,17.0,99,0.06,,,0.43,Wunderground v.1.15,2013-05-01 12:14:00,
2013-05-01 07:18:00,35.0,34.7,30.13,NNE,24,17.0,21.0,99,0.06,,,0.43,Wunderground v.1.15,2013-05-01 12:18:00,
2013-05-01 07:20:00,35.1,34.8,30.14,NNE,24,18.0,18.0,99,0.06,,,0.43,Wunderground v.1.15,2013-05-01 12:20:00,
2013-05-01 07:22:00,35.0,34.7,30.14,North,10,19.0,19.0,99,0.05,,,0.43,Wunderground v.1.15,2013-05-01 12:22:00,
2013-05-01 07:23:00,35.1,34.8,30.15,North,356,18.0,19.0,99,0.05,,,0.43,Wunderground v.1.15,2013-05-01 12:23:00,
2013-05-01 07:25:00,35.1,34.8,30.16,North,352,16.0,19.0,99,0.04,,,0.43,Wunderground v.1.15,2013-05-01 12:25:00,
2013-05-01 07:30:00,35.1,34.8,30.15,NNE,15,15.0,16.0,99,0.00,,,0.43,Wunderground v.1.15,2013-05-01 12:30:00,
2013-05-01 07:32:00,35.0,34.7,30.14,NNE,19,14.0,17.0,99,0.00,,,0.43,Wunderground v.1.15,2013-05-01 12:32:00,
2013-05-01 07:36:00,35.1,34.8,30.13,NNE,25,14.0,17.0,99,0.00,,,0.43,Wunderground v.1.15,2013-05-01 12:36:00,
2013-05-01 07:38:00,35.0,34.7,30.13,North,9,15.0,21.0,99,0.00,,,0.43,Wunderground v.1.15,2013-05-01 12:38:00,
2013-05-01 07:40:00,34.9,34.6,30.13,NNE,19,15.0,19.0,99,0.00,,,0.43,Wunderground v.1.15,2013-05-01 12:40:00,
2013-05-01 07:44:00,34.8,34.5,30.13,NNE,31,16.0,19.0,99,0.00,,,0.43,Wunderground v.1.15,2013-05-01 12:44:00,
2013-05-01 07:45:00,34.9,34.6,30.13,North,9,16.0,19.0,99,0.00,,,0.43,Wunderground v.1.15,2013-05-01 12:45:00,
2013-05-01 07:52:00,34.8,34.5,30.13,NNE,25,14.0,15.0,99,0.00,,,0.43,Wunderground v.1.15,2013-05-01 12:52:00,
2013-05-01 07:54:00,34.8,34.5,30.14,NNE,16,14.0,15.0,99,0.00,,,0.43,Wunderground v.1.15,2013-05-01 12:54:00,
2013-05-01 07:56:00,34.7,34.4,30.14,North,9,14.0,15.0,99,0.00,,,0.43,Wunderground v.1.15,2013-05-01 12:56:00,
2013-05-01 08:00:00,34.5,34.2,30.15,North,8,14.0,14.0,99,0.00,,,0.43,Wunderground v.1.15,2013-05-01 13:00:00,
2013-05-01 08:02:00,34.5,34.2,30.15,NNE,14,14.0,15.0,99,0.00,,,0.43,Wunderground v.1.15,2013-05-01 13:02:00,
2013-05-01 08:06:00,34.3,34.0,30.15,NNE,18,14.0,17.0,99,0.00,,,0.43,Wunderground v.1.15,2013-05-01 13:06:00,
2013-05-01 08:07:00,34.3,34.0,30.15,North,3,14.0,17.0,99,0.00,,,0.43,Wunderground v.1.15,2013-05-01 13:07:00,
2013-05-01 08:09:00,34.4,34.1,30.15,NNW,345,14.0,14.0,99,0.00,,,0.43,Wunderground v.1.15,2013-05-01 13:09:00,
2013-05-01 08:12:00,34.3,34.0,30.15,North,360,14.0,15.0,99,0.00,,,0.43,Wunderground v.1.15,2013-05-01 13:12:00,
2013-05-01 08:14:00,34.4,34.1,30.15,NNW,343,14.0,15.0,99,0.00,,,0.43,Wunderground v.1.15,2013-05-01 13:14:00,
2013-05-01 08:16:00,34.4,34.1,30.14,North,8,14.0,16.0,99,0.00,,,0.43,Wunderground v.1.15,2013-05-01 13:16:00,
2013-05-01 08:18:00,34.4,34.1,30.14,NNW,347,14.0,16.0,99,0.00,,,0.43,Wunderground v.1.15,2013-05-01 13:18:00,
2013-05-01 08:22:00,34.3,34.0,30.15,NNE,30,14.0,15.0,99,0.00,,,0.43,Wunderground v.1.15,2013-05-01 13:22:00,
2013-05-01 08:24:00,34.3,34.0,30.16,NNE,13,14.0,15.0,99,0.00,,,0.43,Wunderground v.1.15,2013-05-01 13:24:00,
2013-05-01 08:27:00,34.4,34.1,30.17,North,5,14.0,15.0,99,0.00,,,0.43,Wunderground v.1.15,2013-05-01 13:27:00,
2013-05-01 08:29:00,34.3,34.0,30.17,NNW,346,14.0,14.0,99,0.00,,,0.43,Wunderground v.1.15,2013-05-01 13:29:00,
2013-05-01 08:32:00,34.3,34.0,30.17,NNE,21,14.0,15.0,99,0.00,,,0.43,Wunderground v.1.15,2013-05-01 13:32:00,
2013-05-01 08:36:00,34.4,34.1,30.16,North,6,14.0,16.0,99,0.00,,,0.43,Wunderground v.1.15,2013-05-01 13:36:00,
2013-05-01 08:38:00,34.3,34.0,30.17,NNW,345,15.0,16.0,99,0.00,,,0.43,Wunderground v.1.15,2013-05-01 13:38:00,
2013-05-01 08:42:00,34.1,33.8,30.17,North,349,16.0,18.0,99,0.00,,,0.43,Wunderground v.1.15,2013-05-01 13:42:00,
2013-05-01 08:46:00,34.2,33.9,30.17,NNW,336,16.0,18.0,99,0.00,,,0.43,Wunderground v.1.15,2013-05-01 13:46:00,
2013-05-01 08:49:00,34.2,33.9,30.16,NNE,13,16.0,17.0,99,0.00,,,0.43,Wunderground v.1.15,2013-05-01 13:49:00,
2013-05-01 08:51:00,34.2,33.9,30.16,NNE,22,16.0,19.0,99,0.00,,,0.43,Wunderground v.1.15,2013-05-01 13:51:00,
2013-05-01 08:56:00,34.3,34.0,30.16,NNE,23,16.0,19.0,99,0.00,,,0.43,Wunderground v.1.15,2013-05-01 13:56:00,
2013-05-01 08:58:00,34.3,34.0,30.16,North,360,16.0,19.0,99,0.00,,,0.43,Wunderground v.1.15,2013-05-01 13:58:00,
2013-05-01 09:00:00,34.2,33.9,30.16,North,360,17.0,17.0,99,0.00,,,0.43,Wunderground v.1.15,2013-05-01 14:00:00,
2013-05-01 09:04:00,34.4,34.1,30.15,NNE,18,17.0,20.0,99,0.00,,,0.44,Wunderground v.1.15,2013-05-01 14:04:00,
2013-05-01 09:06:00,34.4,34.1,30.15,NNE,15,17.0,20.0,99,0.00,,,0.44,Wunderground v.1.15,2013-05-01 14:06:00,
2013-05-01 09:08:00,34.4,34.1,30.15,NNE,16,18.0,20.0,99,0.00,,,0.44,Wunderground v.1.15,2013-05-01 14:08:00,
2013-05-01 09:11:00,34.5,34.2,30.14,NNE,16,18.0,20.0,99,0.00,,,0.44,Wunderground v.1.15,2013-05-01 14:11:00,
2013-05-01 09:13:00,34.3,34.0,30.15,NNE,28,19.0,20.0,99,0.00,,,0.44,Wunderground v.1.15,2013-05-01 14:13:00,
2013-05-01 09:16:00,34.4,34.1,30.15,NE,37,18.0,20.0,99,0.00,,,0.44,Wunderground v.1.15,2013-05-01 14:16:00,
2013-05-01 09:22:00,34.6,34.3,30.15,NNE,32,17.0,18.0,99,0.00,,,0.44,Wunderground v.1.15,2013-05-01 14:22:00,
2013-05-01 09:24:00,34.5,34.2,30.15,NE,42,17.0,21.0,99,0.00,,,0.44,Wunderground v.1.15,2013-05-01 14:24:00,
2013-05-01 09:26:00,34.6,34.3,30.15,NNE,31,17.0,21.0,99,0.00,,,0.44,Wunderground v.1.15,2013-05-01 14:26:00,
2013-05-01 09:28:00,34.4,34.1,30.15,NE,35,17.0,21.0,99,0.00,,,0.44,Wunderground v.1.15,2013-05-01 14:28:00,
2013-05-01 09:31:00,34.3,34.0,30.15,NE,36,18.0,20.0,99,0.00,,,0.44,Wunderground v.1.15,2013-05-01 14:31:00,
2013-05-01 09:33:00,34.2,33.9,30.15,NNE,26,18.0,20.0,99,0.00,,,0.44,Wunderground v.1.15,2013-05-01 14:33:00,
2013-05-01 09:38:00,34.3,34.0,30.15,NNE,30,18.0,20.0,99,0.00,,,0.44,Wunderground v.1.15,2013-05-01 14:38:00,
2013-05-01 09:40:00,34.4,34.1,30.15,NNE,25,17.0,17.0,99,0.00,,,0.44,Wunderground v.1.15,2013-05-01 14:40:00,
2013-05-01 09:44:00,34.3,34.0,30.16,NE,37,16.0,21.0,99,0.00,,,0.44,Wunderground v.1.15,2013-05-01 14:44:00,
2013-05-01 09:46:00,34.2,33.9,30.17,NNE,29,16.0,21.0,99,0.00,,,0.44,Wunderground v.1.15,2013-05-01 14:46:00,
2013-05-01 09:48:00,34.1,33.8,30.17,North,3,17.0,21.0,99,0.00,,,0.44,Wunderground v.1.15,2013-05-01 14:48:00,
2013-05-01 09:50:00,34.1,33.8,30.18,NNE,15,17.0,17.0,99,0.00,,,0.44,Wunderground v.1.15,2013-05-01 14:50:00,
2013-05-01 09:52:00,34.1,33.8,30.19,North,360,17.0,17.0,99,0.00,,,0.44,Wunderground v.1.15,2013-05-01 14:52:00,
2013-05-01 09:53:00,34.2,33.9,30.19,NNE,31,16.0,17.0,99,0.00,,,0.44,Wunderground v.1.15,2013-05-01 14:53:00,
2013-05-01 09:55:00,34.1,33.8,30.20,North,9,15.0,18.0,99,0.00,,,0.44,Wunderground v.1.15,2013-05-01 14:55:00,
2013-05-01 09:58:00,34.0,33.7,30.20,North,6,15.0,18.0,99,0.00,,,0.44,Wunderground v.1.15,2013-05-01 14:58:00,
2013-05-01 10:00:00,34.0,33.7,30.20,NNW,340,15.0,15.0,99,0.00,,,0.44,Wunderground v.1.15,2013-05-01 15:00:00,
2013-05-01 10:06:00,33.8,33.5,30.21,NNE,22,16.0,18.0,99,0.00,,,0.44,Wunderground v.1.15,2013-05-01 15:06:00,
2013-05-01 10:08:00,33.7,33.4,30.21,North,11,16.0,18.0,99,0.00,,,0.44,Wunderground v.1.15,2013-05-01 15:08:00,
2013-05-01 10:10:00,33.7,33.4,30.21,North,352,16.0,16.0,99,0.00,,,0.44,Wunderground v.1.15,2013-05-01 15:10:00,
2013-05-01 10:14:00,33.6,33.3,30.20,North,11,16.0,20.0,99,0.00,,,0.44,Wunderground v.1.15,2013-05-01 15:14:00,
2013-05-01 10:15:00,33.7,33.4,30.20,NNE,19,17.0,20.0,99,0.00,,,0.44,Wunderground v.1.15,2013-05-01 15:15:00,
2013-05-01 10:17:00,33.6,33.3,30.20,NNE,15,17.0,22.0,99,0.00,,,0.44,Wunderground v.1.15,2013-05-01 15:17:00,
2013-05-01 10:20:00,33.4,33.1,30.20,NNE,15,17.0,21.0,99,0.00,,,0.44,Wunderground v.1.15,2013-05-01 15:20:00,
2013-05-01 10:22:00,33.3,33.0,30.19,NNE,20,17.0,21.0,99,0.00,,,0.44,Wunderground v.1.15,2013-05-01 15:22:00,
2013-05-01 10:26:00,33.5,33.2,30.19,North,354,17.0,21.0,99,0.00,,,0.44,Wunderground v.1.15,2013-05-01 15:26:00,
2013-05-01 10:28:00,33.5,33.2,30.20,NNE,32,17.0,21.0,99,0.00,,,0.44,Wunderground v.1.15,2013-05-01 15:28:00,
2013-05-01 10:30:00,33.6,33.3,30.19,North,11,16.0,17.0,99,0.00,,,0.44,Wunderground v.1.15,2013-05-01 15:30:00,
2013-05-01 10:32:00,33.5,33.2,30.19,NNE,25,15.0,18.0,99,0.00,,,0.44,Wunderground v.1.15,2013-05-01 15:32:00,
2013-05-01 10:34:00,33.5,33.2,30.19,North,349,15.0,18.0,99,0.00,,,0.44,Wunderground v.1.15,2013-05-01 15:34:00,
2013-05-01 10:35:00,33.5,33.2,30.19,NNE,15,15.0,18.0,99,0.00,,,0.44,Wunderground v.1.15,2013-05-01 15:35:00,
2013-05-01 10:37:00,33.5,33.2,30.19,NNE,25,15.0,18.0,99,0.00,,,0.44,Wunderground v.1.15,2013-05-01 15:37:00,
2013-05-01 10:40:00,33.5,33.2,30.19,NNE,33,15.0,15.0,99,0.00,,,0.44,Wunderground v.1.15,2013-05-01 15:40:00,
2013-05-01 10:42:00,33.6,33.3,30.18,NNE,17,16.0,17.0,99,0.00,,,0.44,Wunderground v.1.15,2013-05-01 15:42:00,
2013-05-01 10:44:00,33.5,33.2,30.19,NNE,15,16.0,17.0,99,0.00,,,0.44,Wunderground v.1.15,2013-05-01 15:44:00,
2013-05-01 10:46:00,33.6,33.3,30.19,NNE,25,17.0,17.0,99,0.00,,,0.44,Wunderground v.1.15,2013-05-01 15:46:00,
2013-05-01 10:50:00,33.5,33.2,30.19,North,11,18.0,18.0,99,0.00,,,0.44,Wunderground v.1.15,2013-05-01 15:50:00,
2013-05-01 10:52:00,33.5,33.2,30.20,NNE,16,18.0,19.0,99,0.00,,,0.44,Wunderground v.1.15,2013-05-01 15:52:00,
2013-05-01 10:54:00,33.5,33.2,30.21,NNE,16,18.0,19.0,99,0.00,,,0.44,Wunderground v.1.15,2013-05-01 15:54:00,
2013-05-01 10:56:00,33.5,33.2,30.22,NNE,21,18.0,19.0,99,0.00,,,0.44,Wunderground v.1.15,2013-05-01 15:56:00,
2013-05-01 10:57:00,33.5,33.2,30.23,NNE,13,17.0,19.0,99,0.00,,,0.44,Wunderground v.1.15,2013-05-01 15:57:00,
2013-05-01 10:59:00,33.5,33.2,30.23,North,356,16.0,16.0,99,0.00,,,0.44,Wunderground v.1.15,2013-05-01 15:59:00,
2013-05-01 11:02:00,33.6,33.3,30.22,North,9,15.0,17.0,99,0.00,,,0.44,Wunderground v.1.15,2013-05-01 16:02:00,
2013-05-01 11:08:00,33.6,33.3,30.20,North,352,15.0,17.0,99,0.00,,,0.45,Wunderground v.1.15,2013-05-01 16:08:00,
2013-05-01 11:10:00,33.6,33.3,30.21,NNE,16,15.0,16.0,99,0.00,,,0.45,Wunderground v.1.15,2013-05-01 16:10:00,
2013-05-01 11:12:00,33.5,33.2,30.22,NNE,18,15.0,16.0,99,0.00,,,0.45,Wunderground v.1.15,2013-05-01 16:12:00,
2013-05-01 11:14:00,33.5,33.2,30.22,North,359,15.0,16.0,99,0.00,,,0.45,Wunderground v.1.15,2013-05-01 16:14:00,
2013-05-01 11:16:00,33.5,33.2,30.22,NNE,18,15.0,18.0,99,0.00,,,0.45,Wunderground v.1.15,2013-05-01 16:16:00,
2013-05-01 11:20:00,33.4,33.1,30.20,NE,44,14.0,15.0,99,0.00,,,0.45,Wunderground v.1.15,2013-05-01 16:20:00,
2013-05-01 11:22:00,33.4,33.1,30.20,NE,44,14.0,17.0,99,0.00,,,0.45,Wunderground v.1.15,2013-05-01 16:22:00,
2013-05-01 11:23:00,33.3,33.0,30.20,NE,39,15.0,17.0,99,0.00,,,0.45,Wunderground v.1.15,2013-05-01 16:23:00,
2013-05-01 11:25:00,33.3,33.0,30.21,NNE,31,15.0,17.0,99,0.00,,,0.45,Wunderground v.1.15,2013-05-01 16:25:00,
2013-05-01 11:28:00,33.3,33.0,30.20,NNE,27,15.0,17.0,99,0.00,,,0.45,Wunderground v.1.15,2013-05-01 16:28:00,
2013-05-01 11:32:00,33.4,33.1,30.20,NE,40,15.0,19.0,99,0.00,,,0.45,Wunderground v.1.15,2013-05-01 16:32:00,
2013-05-01 11:34:00,33.4,33.1,30.20,North,9,15.0,19.0,99,0.00,,,0.45,Wunderground v.1.15,2013-05-01 16:34:00,
2013-05-01 11:36:00,33.5,33.2,30.20,North,11,15.0,19.0,99,0.00,,,0.45,Wunderground v.1.15,2013-05-01 16:36:00,
2013-05-01 11:40:00,33.3,33.0,30.20,NNW,343,16.0,16.0,99,0.00,,,0.45,Wunderground v.1.15,2013-05-01 16:40:00,
2013-05-01 11:43:00,33.3,33.0,30.20,NNE,13,16.0,19.0,99,0.00,,,0.45,Wunderground v.1.15,2013-05-01 16:43:00,
2013-05-01 11:45:00,33.2,33.0,30.20,North,9,16.0,19.0,99,0.00,,,0.46,Wunderground v.1.15,2013-05-01 16:45:00,
2013-05-01 11:50:00,33.0,32.8,30.20,North,11,17.0,21.0,99,0.00,,,0.46,Wunderground v.1.15,2013-05-01 16:50:00,
2013-05-01 11:54:00,32.9,32.7,30.20,NE,37,18.0,21.0,99,0.00,,,0.46,Wunderground v.1.15,2013-05-01 16:54:00,
2013-05-01 11:56:00,32.9,32.7,30.20,NNE,16,18.0,21.0,99,0.00,,,0.46,Wunderground v.1.15,2013-05-01 16:56:00,
2013-05-01 12:00:00,32.8,32.6,30.21,NNE,19,17.0,17.0,99,0.00,,,0.46,Wunderground v.1.15,2013-05-01 17:00:00,
2013-05-01 12:02:00,32.8,32.6,30.21,NNE,20,16.0,17.0,99,0.00,,,0.46,Wunderground v.1.15,2013-05-01 17:02:00,
2013-05-01 12:07:00,32.5,32.3,30.22,NNE,25,16.0,17.0,99,0.00,,,0.46,Wunderground v.1.15,2013-05-01 17:07:00,
2013-05-01 12:12:00,32.4,32.2,30.22,NNE,15,16.0,16.0,99,0.00,,,0.46,Wunderground v.1.15,2013-05-01 17:12:00,
2013-05-01 12:14:00,32.3,32.1,30.23,NNE,14,16.0,16.0,99,0.00,,,0.46,Wunderground v.1.15,2013-05-01 17:14:00,
2013-05-01 12:16:00,32.3,32.1,30.23,NNW,342,15.0,16.0,99,0.00,,,0.46,Wunderground v.1.15,2013-05-01 17:16:00,
2013-05-01 12:20:00,32.1,31.9,30.22,North,9,16.0,18.0,99,0.00,,,0.46,Wunderground v.1.15,2013-05-01 17:20:00,
2013-05-01 12:22:00,32.0,31.8,30.22,NNE,15,16.0,18.0,99,0.00,,,0.46,Wunderground v.1.15,2013-05-01 17:22:00,
2013-05-01 12:27:00,31.9,31.7,30.23,North,356,16.0,20.0,99,0.00,,,0.46,Wunderground v.1.15,2013-05-01 17:27:00,
2013-05-01 12:29:00,31.8,31.6,30.23,NNE,23,16.0,16.0,99,0.00,,,0.46,Wunderground v.1.15,2013-05-01 17:29:00,
2013-05-01 12:32:00,31.8,31.6,30.22,NNE,23,16.0,16.0,99,0.00,,,0.46,Wunderground v.1.15,2013-05-01 17:32:00,
2013-05-01 12:36:00,31.8,31.6,30.22,NNE,19,16.0,18.0,99,0.00,,,0.46,Wunderground v.1.15,2013-05-01 17:36:00,
2013-05-01 12:40:00,31.8,31.6,30.22,North,3,15.0,16.0,99,0.00,,,0.46,Wunderground v.1.15,2013-05-01 17:40:00,
2013-05-01 12:42:00,31.7,31.5,30.23,North,8,16.0,16.0,99,0.00,,,0.46,Wunderground v.1.15,2013-05-01 17:42:00,
2013-05-01 12:46:00,31.7,31.5,30.24,NNE,27,17.0,17.0,99,0.00,,,0.46,Wunderground v.1.15,2013-05-01 17:46:00,
2013-05-01 12:47:00,31.7,31.5,30.24,NNE,30,17.0,17.0,99,0.00,,,0.46,Wunderground v.1.15,2013-05-01 17:47:00,
2013-05-01 12:54:00,31.5,31.3,30.24,NNE,19,17.0,17.0,99,0.00,,,0.46,Wunderground v.1.15,2013-05-01 17:54:00,
2013-05-01 12:56:00,31.5,31.3,30.24,North,8,17.0,17.0,99,0.00,,,0.46,Wunderground v.1.15,2013-05-01 17:56:00,
2013-05-01 12:58:00,31.5,31.3,30.24,North,1,18.0,18.0,99,0.00,,,0.46,Wunderground v.1.15,2013-05-01 17:58:00,
2013-05-01 13:02:00,31.4,31.2,30.24,NNE,18,17.0,23.0,99,0.00,,,0.46,Wunderground v.1.15,2013-05-01 18:02:00,
2013-05-01 13:06:00,31.3,31.1,30.25,North,3,17.0,23.0,99,0.00,,,0.46,Wunderground v.1.15,2013-05-01 18:06:00,
2013-05-01 13:08:00,31.4,31.2,30.25,NNE,13,16.0,23.0,99,0.00,,,0.46,Wunderground v.1.15,2013-05-01 18:08:00,
2013-05-01 13:11:00,31.3,31.1,30.24,NNW,345,16.0,23.0,99,0.00,,,0.46,Wunderground v.1.15,2013-05-01 18:11:00,
2013-05-01 13:14:00,31.2,31.0,30.24,NNE,13,16.0,23.0,99,0.00,,,0.46,Wunderground v.1.15,2013-05-01 18:14:00,
2013-05-01 13:18:00,31.2,31.0,30.24,North,11,16.0,23.0,99,0.00,,,0.46,Wunderground v.1.15,2013-05-01 18:18:00,
2013-05-01 13:20:00,31.1,30.9,30.24,North,11,16.0,23.0,99,0.00,,,0.46,Wunderground v.1.15,2013-05-01 18:20:00,
2013-05-01 13:22:00,31.1,30.9,30.25,North,360,16.0,23.0,99,0.00,,,0.46,Wunderground v.1.15,2013-05-01 18:22:00,
2013-05-01 13:26:00,30.9,30.7,30.24,NNE,31,16.0,23.0,99,0.00,,,0.46,Wunderground v.1.15,2013-05-01 18:26:00,
2013-05-01 13:28:00,30.9,30.7,30.24,North,3,17.0,23.0,99,0.00,,,0.46,Wunderground v.1.15,2013-05-01 18:28:00,
2013-05-01 13:30:00,30.8,30.6,30.23,NNE,20,17.0,23.0,99,0.00,,,0.46,Wunderground v.1.15,2013-05-01 18:30:00,
2013-05-01 13:31:00,30.8,30.6,30.23,NNE,18,18.0,23.0,99,0.00,,,0.46,Wunderground v.1.15,2013-05-01 18:31:00,
2013-05-01 13:36:00,30.8,30.6,30.23,NNE,21,18.0,23.0,99,0.00,,,0.46,Wunderground v.1.15,2013-05-01 18:36:00,
2013-05-01 13:40:00,30.8,30.6,30.24,NNE,21,18.0,18.0,99,0.00,,,0.46,Wunderground v.1.15,2013-05-01 18:40:00,
2013-05-01 13:42:00,30.8,30.6,30.25,North,360,17.0,23.0,99,0.00,,,0.46,Wunderground v.1.15,2013-05-01 18:42:00,
2013-05-01 13:46:00,30.9,30.7,30.25,NNE,23,16.0,23.0,99,0.00,,,0.46,Wunderground v.1.15,2013-05-01 18:46:00,
2013-05-01 13:48:00,30.9,30.7,30.26,NNE,18,16.0,23.0,99,0.00,,,0.46,Wunderground v.1.15,2013-05-01 18:48:00,
2013-05-01 13:51:00,30.9,30.7,30.25,North,1,15.0,23.0,99,0.00,,,0.46,Wunderground v.1.15,2013-05-01 18:51:00,
2013-05-01 13:53:00,31.0,30.8,30.25,North,10,15.0,23.0,99,0.00,,,0.46,Wunderground v.1.15,2013-05-01 18:53:00,
2013-05-01 13:55:00,30.9,30.7,30.26,NNE,19,16.0,23.0,99,0.00,,,0.46,Wunderground v.1.15,2013-05-01 18:55:00,
2013-05-01 13:58:00,30.9,30.7,30.26,North,6,17.0,23.0,99,0.00,,,0.46,Wunderground v.1.15,2013-05-01 18:58:00,
2013-05-01 14:02:00,30.9,30.7,30.27,North,352,17.0,23.0,99,0.00,,,0.46,Wunderground v.1.15,2013-05-01 19:02:00,
2013-05-01 14:04:00,30.8,30.6,30.27,NNE,12,18.0,23.0,99,0.00,,,0.46,Wunderground v.1.15,2013-05-01 19:04:00,
2013-05-01 14:06:00,30.6,30.4,30.28,NNE,16,18.0,23.0,99,0.00,,,0.46,Wunderground v.1.15,2013-05-01 19:06:00,
2013-05-01 14:10:00,30.5,30.3,30.28,North,5,19.0,23.0,99,0.00,,,0.46,Wunderground v.1.15,2013-05-01 19:10:00,
2013-05-01 14:12:00,30.4,30.2,30.28,NNE,18,19.0,23.0,99,0.00,,,0.46,Wunderground v.1.15,2013-05-01 19:12:00,
2013-05-01 14:13:00,30.5,30.3,30.27,NNE,22,19.0,23.0,99,0.00,,,0.46,Wunderground v.1.15,2013-05-01 19:13:00,
2013-05-01 14:15:00,30.4,30.2,30.25,NNE,18,19.0,23.0,99,0.00,,,0.46,Wunderground v.1.15,2013-05-01 19:15:00,
2013-05-01 14:20:00,30.4,30.2,30.26,NNE,13,18.0,23.0,99,0.00,,,0.46,Wunderground v.1.15,2013-05-01 19:20:00,
2013-05-01 14:22:00,30.4,30.2,30.26,NNE,20,18.0,23.0,99,0.00,,,0.46,Wunderground v.1.15,2013-05-01 19:22:00,
2013-05-01 14:24:00,30.4,30.2,30.26,NNE,18,18.0,23.0,99,0.00,,,0.46,Wunderground v.1.15,2013-05-01 19:24:00,
2013-05-01 14:26:00,30.4,30.2,30.27,NNE,18,17.0,23.0,99,0.00,,,0.46,Wunderground v.1.15,2013-05-01 19:26:00,
2013-05-01 14:28:00,30.4,30.2,30.26,NNE,18,17.0,23.0,99,0.00,,,0.46,Wunderground v.1.15,2013-05-01 19:28:00,
2013-05-01 14:30:00,30.4,30.2,30.26,NNE,18,17.0,17.0,99,0.00,,,0.46,Wunderground v.1.15,2013-05-01 19:30:00,
2013-05-01 14:34:00,30.5,30.3,30.26,NNE,19,17.0,23.0,99,0.00,,,0.46,Wunderground v.1.15,2013-05-01 19:34:00,
2013-05-01 14:35:00,30.5,30.3,30.27,North,8,16.0,23.0,99,0.00,,,0.46,Wunderground v.1.15,2013-05-01 19:35:00,
2013-05-01 14:37:00,30.5,30.3,30.26,North,352,16.0,23.0,99,0.00,,,0.46,Wunderground v.1.15,2013-05-01 19:37:00,
2013-05-01 14:42:00,30.5,30.3,30.26,NNE,12,16.0,23.0,99,0.00,,,0.46,Wunderground v.1.15,2013-05-01 19:42:00,
2013-05-01 14:44:00,30.6,30.4,30.26,NNE,23,16.0,23.0,99,0.00,,,0.46,Wunderground v.1.15,2013-05-01 19:44:00,
2013-05-01 14:46:00,30.6,30.4,30.27,NNE,13,16.0,23.0,99,0.00,,,0.46,Wunderground v.1.15,2013-05-01 19:46:00,
2013-05-01 14:48:00,30.6,30.4,30.28,North,9,16.0,23.0,99,0.00,,,0.46,Wunderground v.1.15,2013-05-01 19:48:00,
2013-05-01 14:50:00,30.6,30.4,30.29,NNE,19,16.0,16.0,99,0.00,,,0.46,Wunderground v.1.15,2013-05-01 19:50:00,
2013-05-01 14:54:00,30.6,30.4,30.30,NNW,344,15.0,23.0,99,0.00,,,0.46,Wunderground v.1.15,2013-05-01 19:54:00,
2013-05-01 14:55:00,30.6,30.4,30.30,NNE,25,15.0,23.0,99,0.00,,,0.46,Wunderground v.1.15,2013-05-01 19:55:00,
2013-05-01 14:57:00,30.6,30.4,30.30,NNE,16,14.0,23.0,99,0.00,,,0.46,Wunderground v.1.15,2013-05-01 19:57:00,
2013-05-01 14:59:00,30.6,30.4,30.30,North,8,14.0,23.0,99,0.00,,,0.46,Wunderground v.1.15,2013-05-01 19:59:00,
2013-05-01 15:04:00,30.6,30.4,30.30,NNE,27,15.0,23.0,99,0.00,,,0.46,Wunderground v.1.15,2013-05-01 20:04:00,
2013-05-01 15:06:00,30.7,30.5,30.30,NNE,13,15.0,23.0,99,0.00,,,0.46,Wunderground v.1.15,2013-05-01 20:06:00,
2013-05-01 15:10:00,30.8,30.6,30.30,North,9,15.0,23.0,99,0.00,,,0.46,Wunderground v.1.15,2013-05-01 20:10:00,
2013-05-01 15:12:00,30.8,30.6,30.29,NNE,19,15.0,23.0,99,0.00,,,0.46,Wunderground v.1.15,2013-05-01 20:12:00,
2013-05-01 15:16:00,30.8,30.6,30.29,NNE,31,15.0,23.0,99,0.00,,,0.46,Wunderground v.1.15,2013-05-01 20:16:00,
2013-05-01 15:17:00,30.9,30.7,30.30,NNE,31,16.0,23.0,99,0.00,,,0.46,Wunderground v.1.15,2013-05-01 20:17:00,
2013-05-01 15:22:00,30.9,30.7,30.31,North,360,16.0,23.0,99,0.00,,,0.46,Wunderground v.1.15,2013-05-01 20:22:00,
2013-05-01 15:24:00,30.9,30.7,30.32,NNE,19,15.0,23.0,99,0.00,,,0.46,Wunderground v.1.15,2013-05-01 20:24:00,
2013-05-01 15:26:00,30.9,30.7,30.32,NNE,19,15.0,23.0,99,0.00,,,0.46,Wunderground v.1.15,2013-05-01 20:26:00,
2013-05-01 15:28:00,30.9,30.7,30.31,NNE,23,15.0,23.0,99,0.00,,,0.46,Wunderground v.1.15,2013-05-01 20:28:00,
2013-05-01 15:32:00,30.9,30.7,30.30,North,6,15.0,23.0,99,0.00,,,0.46,Wunderground v.1.15,2013-05-01 20:32:00,
2013-05-01 15:34:00,30.9,30.7,30.30,North,6,15.0,23.0,99,0.00,,,0.46,Wunderground v.1.15,2013-05-01 20:34:00,
2013-05-01 15:38:00,30.9,30.7,30.31,NNE,25,15.0,23.0,99,0.00,,,0.46,Wunderground v.1.15,2013-05-01 20:38:00,
2013-05-01 15:41:00,31.0,30.8,30.31,NNE,18,14.0,23.0,99,0.00,,,0.46,Wunderground v.1.15,2013-05-01 20:41:00,
2013-05-01 15:44:00,31.0,30.8,30.31,North,1,14.0,23.0,99,0.00,,,0.46,Wunderground v.1.15,2013-05-01 20:44:00,
2013-05-01 15:46:00,31.0,30.8,30.31,North,11,14.0,23.0,99,0.00,,,0.46,Wunderground v.1.15,2013-05-01 20:46:00,
2013-05-01 15:50:00,31.1,30.9,30.30,North,8,14.0,23.0,99,0.00,,,0.46,Wunderground v.1.15,2013-05-01 20:50:00,
2013-05-01 15:52:00,31.0,30.8,30.30,North,6,15.0,23.0,99,0.00,,,0.46,Wunderground v.1.15,2013-05-01 20:52:00,
2013-05-01 15:54:00,31.1,30.9,30.31,NNE,18,15.0,23.0,99,0.00,,,0.46,Wunderground v.1.15,2013-05-01 20:54:00,
2013-05-01 15:56:00,31.1,30.9,30.31,NNE,15,15.0,23.0,99,0.00,,,0.46,Wunderground v.1.15,2013-05-01 20:56:00,
2013-05-01 15:58:00,31.1,30.9,30.31,North,4,15.0,23.0,99,0.00,,,0.46,Wunderground v.1.15,2013-05-01 20:58:00,
2013-05-01 15:59:00,31.1,30.9,30.31,NNE,15,15.0,15.0,99,0.00,,,0.46,Wunderground v.1.15,2013-05-01 20:59:00,
2013-05-01 16:01:00,31.1,30.9,30.31,North,360,15.0,23.0,99,0.00,,,0.46,Wunderground v.1.15,2013-05-01 21:01:00,
2013-05-01 16:06:00,31.1,30.9,30.31,NNE,20,14.0,23.0,99,0.00,,,0.46,Wunderground v.1.15,2013-05-01 21:06:00,
2013-05-01 16:08:00,31.1,30.9,30.31,North,9,14.0,23.0,99,0.00,,,0.46,Wunderground v.1.15,2013-05-01 21:08:00,
2013-05-01 16:12:00,31.2,31.0,30.31,NNE,23,14.0,23.0,99,0.00,,,0.46,Wunderground v.1.15,2013-05-01 21:12:00,
2013-05-01 16:14:00,31.2,31.0,30.30,NNE,33,14.0,23.0,99,0.00,,,0.46,Wunderground v.1.15,2013-05-01 21:14:00,
2013-05-01 16:16:00,31.3,31.1,30.31,NNE,15,15.0,23.0,99,0.00,,,0.46,Wunderground v.1.15,2013-05-01 21:16:00,
2013-05-01 16:18:00,31.3,31.1,30.31,NNE,25,15.0,23.0,99,0.00,,,0.46,Wunderground v.1.15,2013-05-01 21:18:00,
2013-05-01 16:20:00,31.2,31.0,30.32,NNE,33,16.0,16.0,99,0.00,,,0.46,Wunderground v.1.15,2013-05-01 21:20:00,
2013-05-01 16:21:00,31.3,31.1,30.32,NNE,18,16.0,18.0,99,0.00,,,0.46,Wunderground v.1.15,2013-05-01 21:21:00,
2013-05-01 16:23:00,31.3,31.1,30.33,NNE,17,16.0,23.0,99,0.00,,,0.46,Wunderground v.1.15,2013-05-01 21:23:00,
2013-05-01 16:26:00,31.2,31.0,30.33,North,6,15.0,23.0,99,0.00,,,0.46,Wunderground v.1.15,2013-05-01 21:26:00,
2013-05-01 16:30:00,31.3,31.1,30.33,NNE,26,15.0,23.0,99,0.00,,,0.46,Wunderground v.1.15,2013-05-01 21:30:00,
2013-05-01 16:32:00,31.3,31.1,30.33,NNE,18,14.0,23.0,99,0.00,,,0.46,Wunderground v.1.15,2013-05-01 21:32:00,
2013-05-01 16:36:00,31.3,31.1,30.32,NNE,19,14.0,23.0,99,0.00,,,0.46,Wunderground v.1.15,2013-05-01 21:36:00,
2013-05-01 16:38:00,31.4,31.2,30.32,North,360,15.0,23.0,99,0.00,,,0.46,Wunderground v.1.15,2013-05-01 21:38:00,
2013-05-01 16:43:00,31.4,31.2,30.33,NNE,19,16.0,23.0,99,0.00,,,0.46,Wunderground v.1.15,2013-05-01 21:43:00,
2013-05-01 16:45:00,31.4,31.2,30.33,NNE,15,15.0,23.0,99,0.00,,,0.46,Wunderground v.1.15,2013-05-01 21:45:00,
2013-05-01 16:50:00,31.4,31.2,30.33,North,6,14.0,23.0,99,0.00,,,0.46,Wunderground v.1.15,2013-05-01 21:50:00,
2013-05-01 16:52:00,31.4,31.2,30.33,NNE,19,13.0,23.0,99,0.00,,,0.46,Wunderground v.1.15,2013-05-01 21:52:00,
2013-05-01 16:54:00,31.4,31.2,30.33,North,11,13.0,23.0,99,0.00,,,0.46,Wunderground v.1.15,2013-05-01 21:54:00,
2013-05-01 16:56:00,31.4,31.2,30.33,NNE,19,13.0,23.0,99,0.00,,,0.46,Wunderground v.1.15,2013-05-01 21:56:00,
2013-05-01 17:00:00,31.5,31.3,30.33,NNE,16,13.0,23.0,99,0.00,,,0.46,Wunderground v.1.15,2013-05-01 22:00:00,
2013-05-01 17:02:00,31.5,31.3,30.33,NNE,19,13.0,23.0,99,0.00,,,0.46,Wunderground v.1.15,2013-05-01 22:02:00,
2013-05-01 17:05:00,31.6,31.4,30.33,NNE,25,14.0,23.0,99,0.00,,,0.46,Wunderground v.1.15,2013-05-01 22:05:00,
2013-05-01 17:07:00,31.6,31.4,30.33,NNE,24,14.0,23.0,99,0.00,,,0.46,Wunderground v.1.15,2013-05-01 22:07:00,
2013-05-01 17:12:00,31.6,31.4,30.33,North,360,15.0,23.0,99,0.00,,,0.46,Wunderground v.1.15,2013-05-01 22:12:00,
2013-05-01 17:14:00,31.6,31.4,30.33,North,7,15.0,23.0,99,0.00,,,0.46,Wunderground v.1.15,2013-05-01 22:14:00,
2013-05-01 17:16:00,31.6,31.4,30.33,NNE,25,15.0,23.0,99,0.00,,,0.46,Wunderground v.1.15,2013-05-01 22:16:00,
2013-05-01 17:20:00,31.6,31.4,30.33,NNE,20,14.0,14.0,99,0.00,,,0.46,Wunderground v.1.15,2013-05-01 22:20:00,
2013-05-01 17:24:00,31.7,31.5,30.32,NNE,27,14.0,23.0,99,0.00,,,0.46,Wunderground v.1.15,2013-05-01 22:24:00,
2013-05-01 17:25:00,31.7,31.5,30.33,North,8,14.0,23.0,99,0.00,,,0.46,Wunderground v.1.15,2013-05-01 22:25:00,
2013-05-01 17:30:00,31.7,31.5,30.34,North,8,13.0,23.0,99,0.00,,,0.46,Wunderground v.1.15,2013-05-01 22:30:00,
2013-05-01 17:32:00,31.7,31.5,30.33,NNE,18,14.0,23.0,99,0.00,,,0.46,Wunderground v.1.15,2013-05-01 22:32:00,
2013-05-01 17:34:00,31.7,31.5,30.33,North,1,14.0,23.0,99,0.00,,,0.46,Wunderground v.1.15,2013-05-01 22:34:00,
2013-05-01 17:38:00,31.7,31.5,30.34,NNE,27,13.0,23.0,99,0.00,,,0.46,Wunderground v.1.15,2013-05-01 22:38:00,
2013-05-01 17:42:00,31.8,31.6,30.35,North,9,13.0,15.0,99,0.00,,,0.46,Wunderground v.1.15,2013-05-01 22:42:00,
2013-05-01 17:44:00,31.8,31.6,30.35,NNE,13,13.0,23.0,99,0.00,,,0.46,Wunderground v.1.15,2013-05-01 22:44:00,
2013-05-01 17:47:00,31.8,31.6,30.36,NNE,23,13.0,23.0,99,0.00,,,0.46,Wunderground v.1.15,2013-05-01 22:47:00,
2013-05-01 17:49:00,31.8,31.6,30.36,NNE,15,13.0,23.0,99,0.00,,,0.46,Wunderground v.1.15,2013-05-01 22:49:00,
2013-05-01 17:52:00,31.8,31.6,30.36,NNE,29,13.0,23.0,99,0.00,,,0.46,Wunderground v.1.15,2013-05-01 22:52:00,
2013-05-01 17:54:00,31.8,31.6,30.35,NE,43,12.0,23.0,99,0.00,,,0.46,Wunderground v.1.15,2013-05-01 22:54:00,
2013-05-01 17:56:00,31.8,31.6,30.35,NNE,27,12.0,23.0,99,0.00,,,0.46,Wunderground v.1.15,2013-05-01 22:56:00,
2013-05-01 18:00:00,31.8,31.6,30.34,NNE,13,12.0,12.0,99,0.00,,,0.46,Wunderground v.1.15,2013-05-01 23:00:00,
2013-05-01 18:02:00,31.8,31.6,30.33,NNE,19,12.0,23.0,99,0.00,,,0.46,Wunderground v.1.15,2013-05-01 23:02:00,
2013-05-01 18:04:00,31.8,31.6,30.34,NNE,15,12.0,23.0,99,0.00,,,0.46,Wunderground v.1.15,2013-05-01 23:04:00,
2013-05-01 18:07:00,31.8,31.6,30.34,NNE,15,12.0,23.0,99,0.00,,,0.46,Wunderground v.1.15,2013-05-01 23:07:00,
2013-05-01 18:09:00,31.8,31.6,30.35,North,8,12.0,23.0,99,0.00,,,0.46,Wunderground v.1.15,2013-05-01 23:09:00,
2013-05-01 18:11:00,31.8,31.6,30.35,NNE,13,12.0,23.0,99,0.00,,,0.46,Wunderground v.1.15,2013-05-01 23:11:00,
2013-05-01 18:18:00,31.8,31.6,30.35,North,350,11.0,23.0,99,0.00,,,0.46,Wunderground v.1.15,2013-05-01 23:18:00,
2013-05-01 18:20:00,31.8,31.6,30.36,North,354,10.0,10.0,99,0.00,,,0.46,Wunderground v.1.15,2013-05-01 23:20:00,
2013-05-01 18:22:00,31.8,31.6,30.36,NNE,13,10.0,23.0,99,0.00,,,0.46,Wunderground v.1.15,2013-05-01 23:22:00,
2013-05-01 18:24:00,31.8,31.6,30.36,NNE,25,9.0,23.0,99,0.00,,,0.46,Wunderground v.1.15,2013-05-01 23:24:00,
2013-05-01 18:28:00,31.8,31.6,30.36,NNE,28,9.0,23.0,99,0.00,,,0.46,Wunderground v.1.15,2013-05-01 23:28:00,
2013-05-01 18:30:00,31.8,31.6,30.36,NNE,25,10.0,23.0,99,0.00,,,0.46,Wunderground v.1.15,2013-05-01 23:30:00,
2013-05-01 18:32:00,31.8,31.6,30.36,NNE,14,10.0,23.0,99,0.00,,,0.46,Wunderground v.1.15,2013-05-01 23:32:00,
2013-05-01 18:35:00,31.8,31.6,30.36,NE,40,11.0,23.0,99,0.00,,,0.46,Wunderground v.1.15,2013-05-01 23:35:00,
2013-05-01 18:38:00,31.8,31.6,30.36,NNE,27,11.0,23.0,99,0.00,,,0.46,Wunderground v.1.15,2013-05-01 23:38:00,
2013-05-01 18:44:00,31.8,31.6,30.35,NNE,30,11.0,23.0,99,0.00,,,0.46,Wunderground v.1.15,2013-05-01 23:44:00,
2013-05-01 18:46:00,31.8,31.6,30.35,NNE,19,10.0,23.0,99,0.00,,,0.46,Wunderground v.1.15,2013-05-01 23:46:00,
2013-05-01 18:48:00,31.8,31.6,30.36,NNE,18,10.0,23.0,99,0.00,,,0.46,Wunderground v.1.15,2013-05-01 23:48:00,
2013-05-01 18:52:00,31.8,31.6,30.35,NNE,28,10.0,23.0,99,0.00,,,0.46,Wunderground v.1.15,2013-05-01 23:52:00,
2013-05-01 18:55:00,31.8,31.6,30.36,NE,36,9.0,23.0,99,0.00,,,0.46,Wunderground v.1.15,2013-05-01 23:55:00,
2013-05-01 18:57:00,31.8,31.6,30.36,NE,36,9.0,23.0,99,0.00,,,0.46,Wunderground v.1.15,2013-05-01 23:57:00,
2013-05-01 19:00:00,31.9,31.7,30.36,NNE,18,9.0,9.0,99,0.00,,,0.46,Wunderground v.1.15,2013-05-02 00:00:00,
2013-05-01 19:04:00,31.9,31.7,30.36,NNE,27,8.0,23.0,99,0.00,,,0.46,Wunderground v.1.15,2013-05-02 00:04:00,
2013-05-01 19:06:00,31.8,31.6,30.36,NE,37,8.0,23.0,99,0.00,,,0.46,Wunderground v.1.15,2013-05-02 00:06:00,
2013-05-01 19:10:00,31.8,31.6,30.36,NNE,27,9.0,9.0,99,0.00,,,0.46,Wunderground v.1.15,2013-05-02 00:10:00,
2013-05-01 19:14:00,31.9,31.7,30.37,North,9,9.0,23.0,99,0.00,,,0.46,Wunderground v.1.15,2013-05-02 00:14:00,
2013-05-01 19:16:00,31.9,31.7,30.38,NNE,27,9.0,23.0,99,0.00,,,0.46,Wunderground v.1.15,2013-05-02 00:16:00,
2013-05-01 19:19:00,31.9,31.7,30.37,NE,40,9.0,23.0,99,0.00,,,0.46,Wunderground v.1.15,2013-05-02 00:19:00,
2013-05-01 19:22:00,31.9,31.7,30.37,NE,38,10.0,23.0,99,0.00,,,0.46,Wunderground v.1.15,2013-05-02 00:22:00,
2013-05-01 19:26:00,31.9,31.7,30.37,NE,34,10.0,23.0,99,0.00,,,0.46,Wunderground v.1.15,2013-05-02 00:26:00,
2013-05-01 19:32:00,31.9,31.7,30.37,NE,42,10.0,23.0,99,0.00,,,0.46,Wunderground v.1.15,2013-05-02 00:32:00,
2013-05-01 19:34:00,31.9,31.7,30.38,NE,39,9.0,23.0,99,0.00,,,0.46,Wunderground v.1.15,2013-05-02 00:34:00,
2013-05-01 19:36:00,31.9,31.7,30.38,NNE,25,9.0,23.0,99,0.00,,,0.46,Wunderground v.1.15,2013-05-02 00:36:00,
2013-05-01 19:37:00,31.9,31.7,30.37,NE,44,8.0,23.0,99,0.00,,,0.46,Wunderground v.1.15,2013-05-02 00:37:00,
2013-05-01 19:39:00,31.9,31.7,30.37,NNE,30,8.0,8.0,99,0.00,,,0.46,Wunderground v.1.15,2013-05-02 00:39:00,
2013-05-01 19:42:00,32.0,31.8,30.37,NE,48,7.0,23.0,99,0.00,,,0.46,Wunderground v.1.15,2013-05-02 00:42:00,
2013-05-01 19:44:00,32.0,31.8,30.38,NE,46,7.0,23.0,99,0.00,,,0.46,Wunderground v.1.15,2013-05-02 00:44:00,
2013-05-01 19:48:00,31.9,31.7,30.39,NNE,29,7.0,23.0,99,0.00,,,0.46,Wunderground v.1.15,2013-05-02 00:48:00,
2013-05-01 19:50:00,32.0,31.8,30.39,NNE,16,7.0,23.0,99,0.00,,,0.46,Wunderground v.1.15,2013-05-02 00:50:00,
2013-05-01 19:54:00,32.0,31.8,30.38,NNE,25,7.0,23.0,99,0.00,,,0.46,Wunderground v.1.15,2013-05-02 00:54:00,
2013-05-01 19:56:00,32.0,31.8,30.39,NNE,16,8.0,23.0,99,0.00,,,0.46,Wunderground v.1.15,2013-05-02 00:56:00,
2013-05-01 19:59:00,32.0,31.8,30.39,NNE,18,8.0,8.0,99,0.00,,,0.46,Wunderground v.1.15,2013-05-02 00:59:00,
2013-05-01 20:01:00,32.0,31.8,30.39,NNE,23,8.0,23.0,99,0.00,,,0.46,Wunderground v.1.15,2013-05-02 01:01:00,
2013-05-01 20:06:00,32.0,31.8,30.37,NNE,18,7.0,23.0,99,0.00,,,0.46,Wunderground v.1.15,2013-05-02 01:06:00,
2013-05-01 20:08:00,32.0,31.8,30.36,NE,49,7.0,23.0,99,0.00,,,0.46,Wunderground v.1.15,2013-05-02 01:08:00,
2013-05-01 20:12:00,32.0,31.8,30.36,NE,42,7.0,23.0,99,0.00,,,0.46,Wunderground v.1.15,2013-05-02 01:12:00,
2013-05-01 20:14:00,32.0,31.8,30.36,NNE,29,8.0,23.0,99,0.00,,,0.46,Wunderground v.1.15,2013-05-02 01:14:00,
2013-05-01 20:16:00,32.0,31.8,30.36,NE,38,8.0,23.0,99,0.00,,,0.46,Wunderground v.1.15,2013-05-02 01:16:00,
2013-05-01 20:18:00,32.0,31.8,30.36,NNE,31,8.0,23.0,99,0.00,,,0.46,Wunderground v.1.15,2013-05-02 01:18:00,
2013-05-01 20:20:00,32.0,31.8,30.36,NNE,23,8.0,23.0,99,0.00,,,0.46,Wunderground v.1.15,2013-05-02 01:20:00,
2013-05-01 20:21:00,32.0,31.8,30.36,NNE,20,8.0,23.0,99,0.00,,,0.46,Wunderground v.1.15,2013-05-02 01:21:00,
2013-05-01 20:28:00,32.0,32.0,30.37,NE,35,8.0,23.0,100,0.00,,,0.46,Wunderground v.1.15,2013-05-02 01:28:00,
2013-05-01 20:30:00,32.1,32.1,30.37,NNE,23,8.0,8.0,100,0.00,,,0.46,Wunderground v.1.15,2013-05-02 01:30:00,
2013-05-01 20:32:00,32.1,32.1,30.38,NNE,13,8.0,10.0,100,0.00,,,0.46,Wunderground v.1.15,2013-05-02 01:32:00,
2013-05-01 20:34:00,32.0,32.0,30.38,NNE,25,8.0,23.0,100,0.00,,,0.46,Wunderground v.1.15,2013-05-02 01:34:00,
2013-05-01 20:38:00,32.0,32.0,30.38,North,11,9.0,23.0,100,0.00,,,0.46,Wunderground v.1.15,2013-05-02 01:38:00,
2013-05-01 20:40:00,32.0,32.0,30.38,NNE,20,9.0,23.0,100,0.00,,,0.46,Wunderground v.1.15,2013-05-02 01:40:00,
2013-05-01 20:41:00,32.0,32.0,30.38,North,358,9.0,23.0,100,0.00,,,0.46,Wunderground v.1.15,2013-05-02 01:41:00,
2013-05-01 20:46:00,32.0,32.0,30.38,North,11,8.0,23.0,100,0.00,,,0.46,Wunderground v.1.15,2013-05-02 01:46:00,
2013-05-01 20:50:00,32.0,32.0,30.38,North,11,8.0,8.0,100,0.00,,,0.46,Wunderground v.1.15,2013-05-02 01:50:00,
2013-05-01 20:54:00,32.0,32.0,30.38,North,3,8.0,23.0,100,0.00,,,0.46,Wunderground v.1.15,2013-05-02 01:54:00,
2013-05-01 20:56:00,32.0,32.0,30.39,NW,326,7.0,23.0,100,0.00,,,0.46,Wunderground v.1.15,2013-05-02 01:56:00,
2013-05-01 21:00:00,32.0,32.0,30.39,North,4,7.0,7.0,100,0.00,,,0.46,Wunderground v.1.15,2013-05-02 02:00:00,
2013-05-01 21:02:00,32.0,32.0,30.39,NNE,13,7.0,8.0,100,0.00,,,0.46,Wunderground v.1.15,2013-05-02 02:02:00,
2013-05-01 21:03:00,32.0,32.0,30.39,North,6,7.0,23.0,100,0.00,,,0.46,Wunderground v.1.15,2013-05-02 02:03:00,
2013-05-01 21:05:00,32.1,32.1,30.39,North,356,7.0,23.0,100,0.00,,,0.46,Wunderground v.1.15,2013-05-02 02:05:00,
2013-05-01 21:10:00,32.1,32.1,30.40,North,356,7.0,23.0,100,0.00,,,0.47,Wunderground v.1.15,2013-05-02 02:10:00,
2013-05-01 21:14:00,32.1,32.1,30.39,North,4,7.0,23.0,100,0.00,,,0.47,Wunderground v.1.15,2013-05-02 02:14:00,
2013-05-01 21:18:00,32.2,32.2,30.38,NNE,29,10.0,23.0,100,0.00,,,0.47,Wunderground v.1.15,2013-05-02 02:18:00,
2013-05-01 21:22:00,32.3,32.3,30.39,NNE,23,11.0,13.0,100,0.00,,,0.47,Wunderground v.1.15,2013-05-02 02:22:00,
2013-05-01 21:25:00,32.4,32.4,30.40,NNE,30,13.0,23.0,100,0.04,,,0.48,Wunderground v.1.15,2013-05-02 02:25:00,
2013-05-01 21:30:00,32.5,32.5,30.40,NE,36,14.0,14.0,100,0.04,,,0.48,Wunderground v.1.15,2013-05-02 02:30:00,
2013-05-01 21:32:00,32.5,32.5,30.40,NNE,29,14.0,23.0,100,0.04,,,0.48,Wunderground v.1.15,2013-05-02 02:32:00,
2013-05-01 21:34:00,32.5,32.5,30.40,NE,36,14.0,23.0,100,0.06,,,0.49,Wunderground v.1.15,2013-05-02 02:34:00,
2013-05-01 21:38:00,32.6,32.6,30.39,NNE,19,14.0,23.0,100,0.06,,,0.49,Wunderground v.1.15,2013-05-02 02:38:00,
2013-05-01 21:40:00,32.6,32.6,30.39,NNE,30,14.0,23.0,100,0.06,,,0.49,Wunderground v.1.15,2013-05-02 02:40:00,
2013-05-01 21:44:00,32.6,32.6,30.40,NE,37,13.0,23.0,100,0.06,,,0.49,Wunderground v.1.15,2013-05-02 02:44:00,
2013-05-01 21:45:00,32.6,32.6,30.39,NNE,21,13.0,23.0,100,0.05,,,0.49,Wunderground v.1.15,2013-05-02 02:45:00,
2013-05-01 21:47:00,32.6,32.6,30.39,NNE,33,13.0,23.0,100,0.05,,,0.50,Wunderground v.1.15,2013-05-02 02:47:00,
2013-05-01 21:50:00,32.6,32.6,30.40,NNE,19,13.0,23.0,100,0.05,,,0.50,Wunderground v.1.15,2013-05-02 02:50:00,
2013-05-01 21:52:00,32.6,32.6,30.39,NNE,26,13.0,23.0,100,0.05,,,0.50,Wunderground v.1.15,2013-05-02 02:52:00,
2013-05-01 21:56:00,32.7,32.7,30.40,NNE,27,13.0,23.0,100,0.05,,,0.50,Wunderground v.1.15,2013-05-02 02:56:00,
2013-05-01 21:58:00,32.7,32.7,30.40,NNE,13,13.0,23.0,100,0.05,,,0.50,Wunderground v.1.15,2013-05-02 02:58:00,
2013-05-01 22:00:00,32.7,32.7,30.39,NNE,15,13.0,23.0,100,0.04,,,0.50,Wunderground v.1.15,2013-05-02 03:00:00,
2013-05-01 22:02:00,32.7,32.7,30.39,NE,36,13.0,23.0,100,0.04,,,0.51,Wunderground v.1.15,2013-05-02 03:02:00,
2013-05-01 22:04:00,32.7,32.7,30.39,NNE,16,13.0,23.0,100,0.04,,,0.51,Wunderground v.1.15,2013-05-02 03:04:00,
2013-05-01 22:06:00,32.7,32.7,30.39,NNE,26,13.0,23.0,100,0.04,,,0.51,Wunderground v.1.15,2013-05-02 03:06:00,
2013-05-01 22:09:00,32.7,32.7,30.39,NNE,19,14.0,14.0,100,0.04,,,0.51,Wunderground v.1.15,2013-05-02 03:09:00,
2013-05-01 22:12:00,32.7,32.7,30.39,NNE,14,14.0,23.0,100,0.04,,,0.51,Wunderground v.1.15,2013-05-02 03:12:00,
2013-05-01 22:16:00,32.7,32.7,30.39,NNE,19,14.0,23.0,100,0.04,,,0.51,Wunderground v.1.15,2013-05-02 03:16:00,
2013-05-01 22:18:00,32.7,32.7,30.39,NNE,25,13.0,23.0,100,0.00,,,0.51,Wunderground v.1.15,2013-05-02 03:18:00,
2013-05-01 22:22:00,32.7,32.7,30.39,NNE,29,13.0,23.0,100,0.00,,,0.52,Wunderground v.1.15,2013-05-02 03:22:00,
2013-05-01 22:24:00,32.7,32.7,30.39,NNE,18,13.0,23.0,100,0.00,,,0.52,Wunderground v.1.15,2013-05-02 03:24:00,
2013-05-01 22:28:00,32.8,32.8,30.39,NNE,26,13.0,23.0,100,0.00,,,0.52,Wunderground v.1.15,2013-05-02 03:28:00,
2013-05-01 22:29:00,32.9,32.9,30.39,NE,38,13.0,13.0,100,0.00,,,0.52,Wunderground v.1.15,2013-05-02 03:29:00,
2013-05-01 22:31:00,32.9,32.9,30.40,NNE,18,12.0,23.0,100,0.00,,,0.52,Wunderground v.1.15,2013-05-02 03:31:00,
2013-05-01 22:34:00,32.9,32.9,30.40,NE,37,12.0,23.0,100,0.00,,,0.52,Wunderground v.1.15,2013-05-02 03:34:00,
2013-05-01 22:36:00,32.9,32.9,30.40,NE,41,11.0,23.0,100,0.00,,,0.52,Wunderground v.1.15,2013-05-02 03:36:00,
2013-05-01 22:38:00,33.0,33.0,30.39,NE,41,11.0,23.0,100,0.00,,,0.52,Wunderground v.1.15,2013-05-02 03:38:00,
2013-05-01 22:40:00,33.0,33.0,30.39,NNE,33,11.0,23.0,100,0.00,,,0.52,Wunderground v.1.15,2013-05-02 03:40:00,
2013-05-01 22:42:00,33.0,33.0,30.39,NE,36,12.0,23.0,100,0.00,,,0.52,Wunderground v.1.15,2013-05-02 03:42:00,
2013-05-01 22:44:00,33.0,33.0,30.39,NNE,31,12.0,23.0,100,0.00,,,0.52,Wunderground v.1.15,2013-05-02 03:44:00,
2013-05-01 22:48:00,33.1,33.1,30.39,NE,43,12.0,23.0,100,0.00,,,0.53,Wunderground v.1.15,2013-05-02 03:48:00,
2013-05-01 22:51:00,33.1,33.1,30.40,NE,43,11.0,23.0,100,0.00,,,0.53,Wunderground v.1.15,2013-05-02 03:51:00,
2013-05-01 22:54:00,33.1,33.1,30.41,NNE,21,12.0,23.0,100,0.00,,,0.53,Wunderground v.1.15,2013-05-02 03:54:00,
2013-05-01 22:56:00,33.2,33.2,30.41,NNE,27,11.0,23.0,100,0.00,,,0.53,Wunderground v.1.15,2013-05-02 03:56:00,
2013-05-01 22:58:00,33.2,33.2,30.42,NE,36,11.0,23.0,100,0.00,,,0.53,Wunderground v.1.15,2013-05-02 03:58:00,
2013-05-01 23:02:00,33.2,33.2,30.41,NNE,16,10.0,12.0,100,0.00,,,0.53,Wunderground v.1.15,2013-05-02 04:02:00,
2013-05-01 23:06:00,33.2,33.2,30.41,NNE,32,10.0,23.0,100,0.00,,,0.53,Wunderground v.1.15,2013-05-02 04:06:00,
2013-05-01 23:08:00,33.2,33.2,30.41,NNE,29,10.0,23.0,100,0.00,,,0.53,Wunderground v.1.15,2013-05-02 04:08:00,
2013-05-01 23:10:00,33.2,33.2,30.41,NNE,19,10.0,10.0,100,0.00,,,0.53,Wunderground v.1.15,2013-05-02 04:10:00,
2013-05-01 23:13:00,33.3,33.3,30.41,NNE,26,10.0,23.0,100,0.00,,,0.53,Wunderground v.1.15,2013-05-02 04:13:00,
2013-05-01 23:16:00,33.3,33.3,30.41,NNE,18,10.0,23.0,100,0.00,,,0.53,Wunderground v.1.15,2013-05-02 04:16:00,
2013-05-01 23:20:00,33.4,33.4,30.41,NE,37,11.0,23.0,100,0.00,,,0.54,Wunderground v.1.15,2013-05-02 04:20:00,
2013-05-01 23:22:00,33.5,33.5,30.41,NNE,32,12.0,23.0,100,0.00,,,0.54,Wunderground v.1.15,2013-05-02 04:22:00,
2013-05-01 23:28:00,34.0,33.7,30.41,NNE,19,14.0,23.0,99,0.00,,,0.54,Wunderground v.1.15,2013-05-02 04:28:00,
2013-05-01 23:30:00,34.2,33.9,30.41,NNE,25,14.0,23.0,99,0.00,,,0.54,Wunderground v.1.15,2013-05-02 04:30:00,
2013-05-01 23:33:00,34.5,34.2,30.40,NNE,32,14.0,23.0,99,0.00,,,0.54,Wunderground v.1.15,2013-05-02 04:33:00,
2013-05-01 23:35:00,34.6,34.1,30.40,NNE,31,13.0,23.0,98,0.00,,,0.54,Wunderground v.1.15,2013-05-02 04:35:00,
2013-05-01 23:38:00,34.7,34.2,30.41,NNE,20,13.0,23.0,98,0.00,,,0.54,Wunderground v.1.15,2013-05-02 04:38:00,
2013-05-01 23:42:00,34.9,33.9,30.40,NE,34,13.0,14.0,96,0.00,,,0.54,Wunderground v.1.15,2013-05-02 04:42:00,
2013-05-01 23:48:00,35.1,33.3,30.41,NNE,28,13.0,23.0,93,0.00,,,0.54,Wunderground v.1.15,2013-05-02 04:48:00,
2013-05-01 23:50:00,35.2,33.1,30.41,NNE,26,14.0,14.0,92,0.00,,,0.54,Wunderground v.1.15,2013-05-02 04:50:00,
2013-05-01 23:52:00,35.3,33.2,30.41,NNE,30,14.0,16.0,92,0.00,,,0.54,Wunderground v.1.15,2013-05-02 04:52:00,
2013-05-01 23:55:00,35.3,32.7,30.40,NE,36,14.0,23.0,90,0.00,,,0.55,Wunderground v.1.15,2013-05-02 04:55:00,
2013-05-01 23:58:00,35.4,32.5,30.40,NE,38,15.0,23.0,89,0.00,,,0.55,Wunderground v.1.15,2013-05-02 04:58:00,